Location: Unspecified
(29.9680°N, 0.0000°E)
Time: 08:26:10
(UTC+00:00)

A-11 Canister half - Pass Details

Date: 18 June 2019
Orbit: 1526 x 1683 km, 47.3° (Epoch: 24 July)

Event Time Altitude Azimuth Distance (km) Brightness Sun altitude
Rises 08:19:36 0° 292° (WNW) 4,691 11.1 40.6°
Reaches altitude 10° 08:23:24 10° 305° (NW) 3,698 10.8 41.4°
Maximum altitude 08:30:53 26° 359° (N) 2,638 10.6 43.0°
Drops below altitude 10° 08:38:24 10° 54° (NE) 3,708 11.8 44.6°
Sets 08:42:13 0° 66° (ENE) 4,706 12.2 45.4°
